Dewpoint
-11 -6 -3 -1 -2 -3 -1 4 5 4 2 11 11 12 11 11 11 12 12 12 12 12 12 13 13 13 13 13 14 14 14 14 15 15 14 14 13 14 14 14 15 15 16 16
-8 -3 -3 -1 -1 -2 -3 1 5 4 2 5 12 12 11 11 12 12 13 13 12 13 12 13 13 13 13 13 14 14 14 13 13 13 12 12 11 9 12 13 13 14 13 13
-6 -5 -3 -1 -0 -0 -3 4 4 4 4 6 11 12 12 11 11 11 12 13 13 14 14 13 13 13 14 14 13 13 13 12 12 10 10 11 12 10 11 12 13 14 13 11
-7 -8 -3 -0 0 -2 -3 -4 2 5 5 9 7 14 11 10 10 9 11 12 13 13 14 14 14 13 14 14 13 14 13 7 5 8 7 9 12 12 8 12 13 12 11 6
-7 -6 -5 -3 -2 -5 -4 -7 -6 5 5 6 8 11 10 9 9 8 10 11 12 12 13 14 14 13 14 15 15 14 7 8 7 6 -4 7 12 6 9 10 11 11 8 10
-9 -9 -5 -5 -5 -6 -7 -7 -5 -1 2 6 7 7 9 11 8 7 8 11 11 12 13 13 13 13 14 15 15 15 6 6 8 -3 1 8 8 3 6 9 9 9 7 6
-6 -8 -8 -7 -7 -7 -7 -6 -3 -2 -0 -0 -2 8 6 9 7 6 7 10 11 11 12 13 13 14 15 15 15 14 11 7 7 3 13 -2 -2 -10 -6 6 8 5 1 7
-5 -4 -6 -8 -8 -7 -7 -6 -1 1 4 1 -0 0 -2 7 7 6 6 9 10 11 12 12 11 11 11 13 14 13 11 12 8 9 15 -0 -1 -5 -1 -1 0 4 9 6
-4 -4 -7 -8 -9 -9 -7 -3 -3 1 1 3 2 1 4 6 7 6 6 8 9 10 12 12 11 10 11 12 12 12 10 10 10 10 3 -0 2 -4 -2 3 8 10 10 5
-8 -6 -8 -8 -9 -8 -8 -6 -2 -0 2 2 2 3 5 9 9 7 6 6 7 9 11 12 11 10 10 10 10 11 11 9 10 9 1 -2 3 1 -1 2 6 4 -0 4
-11 -6 -7 -7 -7 -6 -2 -2 -2 -2 0 2 2 3 4 8 9 9 8 7 6 8 10 11 11 10 10 10 11 11 12 13 12 12 2 -0 6 5 3 5 1 1 3 4
-10 -7 -6 -7 -6 -8 -3 -3 -1 -0 -0 1 2 4 3 5 6 7 7 8 7 6 8 9 9 10 10 10 12 11 12 13 13 14 4 0 7 6 5 4 2 -0 -1 2
-9 -6 -4 -4 -5 -6 -4 -3 -0 -1 0 2 4 4 3 2 4 4 4 5 5 6 7 8 10 10 11 11 11 11 12 13 14 14 5 4 7 5 4 0 -0 -2 -2 -1
-6 -6 -6 -4 -2 -4 -4 -3 -1 -2 1 1 2 2 3 4 4 4 3 3 3 4 6 6 8 9 9 10 10 11 12 13 14 14 9 5 6 5 6 0 -1 -2 -1 1
-9 -5 -2 -4 -5 -3 -5 -5 -1 -2 -2 -1 -2 2 3 5 6 4 2 2 4 6 7 7 7 9 10 11 12 13 12 12 14 14 12 9 5 8 7 4 1 1 -0 2
-4 -4 -3 -5 -4 -6 -7 -4 -2 -2 -1 -1 -0 3 3 3 5 5 4 3 3 3 4 6 7 8 9 10 11 11 11 12 14 14 13 10 7 9 7 3 0 2 -0 4
-2 -1 -0 -2 -2 -1 -0 -1 -3 -2 2 -3 -0 -1 2 5 5 3 3 2 2 2 2 5 11 10 11 12 11 12 12 13 14 14 13 11 10 7 8 5 -1 -0 1 4
1 -1 -0 0 -2 1 -2 -1 2 5 5 5 1 3 3 4 4 3 2 1 1 1 1 1 1 5 10 11 13 14 14 14 15 14 13 10 9 7 9 5 -3 -1 3 5
6 7 9 2 -0 -1 1 4 4 4 5 6 6 5 3 3 2 3 0 -1 -1 -2 -0 -1 1 3 3 10 13 14 15 15 15 14 11 10 8 8 9 3 -2 1 6 9
4 7 9 10 4 3 3 7 5 4 8 5 6 6 4 4 7 6 1 -1 -0 2 2 1 1 -2 -2 6 12 14 15 15 15 13 11 10 7 8 7 -2 0 5 9 11
8 9 9 10 9 7 6 8 4 7 7 7 4 4 4 6 6 3 4 4 4 3 2 2 1 1 -2 6 11 14 15 15 14 13 11 9 9 8 3 3 5 9 11 11
12 11 11 10 8 8 7 7 10 8 6 5 5 4 4 4 3 3 3 1 2 4 6 5 4 1 3 8 12 14 14 13 12 11 11 12 12 12 13 8 10 11 11 10
11 12 13 13 12 10 7 8 7 6 6 5 5 4 3 4 4 4 2 1 -1 -2 -4 5 7 5 11 14 14 14 13 12 12 13 13 12 10 9 11 12 11 11 10 10
9 10 12 11 9 11 7 4 4 5 4 5 5 5 5 4 4 2 -1 2 4 4 -2 -2 8 8 10 14 14 14 12 13 13 12 11 8 7 6 8 9 10 10 10 10
10 9 12 12 10 7 5 3 2 2 3 3 3 2 2 2 5 8 8 8 6 7 8 10 11 12 14 15 14 13 12 12 11 7 3 4 5 3 7 10 11 10 8 8
8 10 12 12 10 8 7 2 -0 -0 -1 -1 -1 -0 0 2 10 7 6 11 11 10 11 14 14 14 14 13 12 10 5 5 4 4 5 3 3 7 9 9 9 8 7 7
Wind_Speed
6 3 6 9 8 6 5 7 12 10 11 8 16 12 19 26 25 24 27 30 31 35 35 30 27 24 22 21 19 18 19 15 14 11 9 8 7 7 9 7 8 11 12 10
3 7 11 6 4 6 4 7 8 3 12 7 13 17 19 23 28 31 30 30 34 31 34 32 29 27 27 23 20 20 19 16 12 9 9 8 6 6 7 6 8 8 7 8
7 7 7 5 9 4 6 8 9 10 6 6 11 1 8 15 22 25 27 38 40 37 37 36 32 28 28 26 22 21 17 17 13 11 9 9 8 8 8 8 9 7 7 9
6 12 8 8 8 7 8 10 14 8 16 7 8 6 6 17 15 13 24 31 38 40 38 37 34 29 31 28 23 21 19 17 16 13 12 11 10 11 10 7 8 8 7 10
9 10 10 9 16 7 13 8 12 11 16 7 3 5 10 8 9 11 21 37 42 44 44 43 39 34 31 31 27 23 23 20 18 16 13 11 13 12 13 10 10 10 8 3
10 17 8 11 17 9 14 5 6 5 5 2 11 7 4 10 25 21 18 32 37 43 46 45 40 37 33 33 29 27 27 24 21 17 12 14 13 14 14 14 13 11 13 8
4 17 10 11 6 8 4 6 2 2 1 6 8 8 11 21 24 18 23 35 41 45 46 48 44 42 38 38 34 31 30 29 25 19 17 15 13 11 13 16 16 15 11 9
9 12 15 6 11 11 8 10 6 7 3 5 8 7 11 17 36 34 34 43 44 42 48 52 49 47 44 41 38 35 35 33 29 25 24 19 10 8 10 12 10 8 8 11
6 8 8 11 11 11 9 4 10 7 1 3 4 7 6 6 16 21 28 32 38 42 46 52 52 48 47 44 43 42 39 38 33 30 28 22 12 9 9 8 8 9 12 11
8 4 8 14 6 7 15 8 3 3 7 4 5 4 6 4 12 12 14 26 37 40 44 49 53 51 50 47 45 44 43 42 37 33 30 24 16 11 9 10 10 11 11 10
12 5 13 1 6 10 2 3 4 6 5 6 3 6 7 15 17 18 18 30 32 42 47 50 54 53 53 50 49 47 47 44 40 37 33 26 20 16 10 9 10 10 9 8
10 7 13 18 12 8 8 9 7 6 5 1 5 7 5 13 13 22 25 32 36 44 50 52 53 54 56 55 55 51 50 46 42 39 34 29 22 16 11 11 11 9 7 8
11 6 8 8 7 3 7 6 6 6 5 7 6 5 1 4 3 19 24 29 31 33 48 52 51 51 56 58 58 55 53 49 43 39 36 29 25 20 15 14 14 11 10 10
18 6 11 14 9 5 6 7 7 8 5 6 6 5 3 6 10 9 26 32 29 28 35 49 50 54 57 58 59 59 55 51 44 40 39 33 29 22 18 14 13 13 12 11
12 9 7 10 19 10 14 12 9 6 9 9 8 11 10 11 12 21 32 29 26 29 32 40 45 49 54 52 55 56 56 53 46 45 40 35 28 24 20 14 13 14 15 13
6 7 9 16 8 8 7 9 14 7 5 2 6 7 11 21 24 22 32 33 31 27 25 24 36 44 48 50 52 56 57 55 49 46 42 33 29 25 22 16 14 14 18 16
11 7 5 9 7 6 4 2 7 3 4 6 7 11 10 5 8 20 24 25 23 17 12 13 28 36 42 48 51 54 55 55 50 47 42 33 31 23 25 18 15 17 19 18
5 8 4 5 4 5 7 1 12 11 5 7 6 9 16 18 26 23 27 25 19 15 11 9 8 13 27 41 49 50 53 55 48 44 36 33 31 26 25 19 19 20 21 20
3 5 4 5 5 4 3 5 5 6 5 6 2 6 10 30 20 8 21 18 15 13 11 9 12 14 16 27 45 50 51 51 46 42 32 35 28 28 26 22 22 23 23 21
9 8 5 3 6 5 1 6 6 7 6 9 9 8 6 12 7 3 16 18 13 17 13 8 11 13 16 19 28 44 48 48 49 44 32 35 29 26 26 24 24 23 22 22
5 5 4 3 4 2 5 8 2 8 6 7 17 19 17 6 7 8 14 19 13 8 11 12 17 16 16 19 24 36 44 46 43 35 30 31 28 29 24 23 24 22 21 24
4 3 3 4 4 4 21 8 7 4 16 21 21 20 20 17 14 16 13 6 3 11 20 20 21 21 19 19 24 32 38 41 35 32 33 22 18 28 41 25 20 20 22 25
4 5 5 4 3 8 17 17 25 23 27 29 26 18 16 15 9 6 6 10 17 16 11 20 27 24 22 25 29 30 35 29 32 29 23 14 11 19 25 19 20 23 22 23
2 4 4 7 3 4 10 24 26 28 29 28 28 25 20 14 12 12 13 11 16 21 20 22 29 27 25 26 27 30 26 26 27 16 15 21 21 9 20 23 22 26 19 14
4 4 7 1 3 5 12 18 20 17 14 12 9 8 9 10 15 17 16 14 13 17 21 17 25 27 26 26 28 25 19 13 8 2 7 6 9 17 18 23 16 15 15 14
3 6 5 4 6 8 5 13 19 23 18 12 10 8 14 14 5 4 5 12 10 10 10 14 22 26 25 21 20 18 16 14 6 6 3 1 16 22 21 19 18 18 16 13
Wind_Direction
233 123 216 233 198 208 217 133 175 195 152 126 158 161 176 177 183 191 188 191 193 195 194 192 195 199 200 200 203 202 207 211 211 218 230 233 235 236 238 242 247 246 255 267
303 215 228 227 212 231 234 201 198 217 164 116 167 172 181 181 195 193 189 187 185 187 186 190 195 200 200 200 205 201 199 200 205 216 217 220 224 221 197 206 236 247 261 273
184 239 227 218 267 280 285 203 199 186 146 69 128 179 189 204 201 204 199 189 185 188 188 192 196 200 199 200 193 190 197 205 212 205 213 216 214 216 229 231 245 254 269 299
199 245 238 232 244 179 268 215 220 161 160 159 176 206 243 197 198 202 190 186 188 191 193 196 195 196 196 196 192 194 199 197 195 199 212 221 225 223 238 224 219 233 270 297
228 216 225 237 237 176 241 214 199 168 176 110 185 104 213 137 213 212 199 197 194 198 197 194 195 194 197 199 196 193 192 193 196 203 211 225 224 229 217 217 220 250 288 251
211 247 182 221 248 218 245 254 52 55 96 133 205 154 249 188 209 210 216 202 197 200 200 196 198 195 197 203 203 200 198 200 204 208 216 233 238 247 239 228 230 245 267 253
294 237 244 213 237 273 168 67 305 342 120 205 192 190 234 207 217 204 198 198 200 204 196 195 193 196 193 201 207 208 206 207 210 212 217 225 232 218 221 232 241 252 240 240
216 251 225 214 189 221 210 158 158 200 250 251 141 212 246 200 207 205 200 197 200 198 194 196 198 197 199 203 210 211 211 213 213 215 218 217 221 205 193 196 197 206 231 248
172 245 262 223 221 166 237 147 188 138 70 68 259 299 329 205 195 185 187 189 196 198 194 196 201 202 202 206 209 213 215 216 214 216 217 215 218 225 217 210 215 235 246 257
219 271 242 253 192 248 190 174 96 0 164 202 281 259 230 199 181 194 189 187 193 197 197 198 203 207 208 211 212 215 218 216 212 215 221 218 217 216 215 221 230 239 239 236
195 142 262 55 213 208 78 128 62 121 138 162 224 268 217 199 184 186 200 208 190 195 200 205 210 211 213 214 215 218 219 218 213 215 219 218 218 218 210 216 218 218 222 232
196 175 236 248 249 229 164 172 147 139 228 153 159 264 263 183 184 183 202 208 207 201 205 212 216 214 216 216 216 219 220 219 216 216 217 221 220 221 224 237 239 239 252 257
195 209 236 303 331 357 162 165 141 108 91 184 140 255 138 53 125 180 185 207 212 213 201 210 212 212 217 219 220 219 222 221 217 217 220 215 220 218 225 237 238 242 246 246
175 146 194 224 214 183 194 162 161 142 142 173 203 188 162 183 178 186 183 174 184 193 204 208 214 219 222 222 224 222 222 222 217 217 220 216 219 220 225 232 234 235 233 237
160 181 155 213 223 211 203 184 160 153 181 168 217 183 208 192 181 181 177 176 180 188 195 205 215 218 222 221 220 221 222 223 217 219 219 218 218 219 221 227 232 229 228 236
177 216 153 227 229 212 163 210 161 153 132 72 160 213 196 197 176 176 178 182 185 199 202 211 219 221 222 222 224 226 224 226 217 219 219 217 220 217 225 227 228 228 231 237
153 140 119 214 158 117 74 119 215 244 73 200 169 220 160 163 185 174 172 172 161 158 175 211 231 227 226 226 227 226 224 224 220 217 215 215 215 222 227 229 232 233 238 240
151 123 111 173 111 134 233 174 106 92 8 327 256 187 176 180 183 178 165 152 157 163 183 199 204 224 238 237 231 227 226 225 218 217 215 211 212 223 227 232 236 237 243 245
3 109 82 132 145 198 46 26 153 137 347 318 238 85 130 141 134 153 166 173 168 177 177 207 239 251 248 236 232 229 225 222 220 214 215 212 212 229 233 239 240 241 245 248
50 58 99 85 120 168 217 298 24 103 20 324 76 76 97 100 100 254 193 179 181 172 176 216 247 261 253 243 237 229 224 217 214 211 225 210 219 234 240 246 245 244 248 251
11 12 58 87 130 313 275 293 168 78 219 328 80 86 86 86 119 104 135 143 158 196 232 241 241 249 253 240 236 228 220 217 220 220 218 218 236 242 240 248 246 246 251 260
76 54 11 1 55 27 347 313 84 204 80 78 71 85 83 64 55 49 36 50 193 222 220 228 243 236 238 235 235 223 212 207 204 200 207 226 244 250 254 240 242 241 253 264
44 154 147 91 153 277 7 78 81 91 78 74 72 69 70 71 49 44 23 341 333 305 277 250 232 228 222 213 216 205 192 194 197 198 205 196 248 289 309 292 259 257 261 268
80 108 107 116 241 310 55 73 69 73 67 65 63 47 53 41 19 356 330 308 295 303 299 278 237 225 217 210 202 196 203 206 195 191 198 227 216 249 275 284 263 261 267 272
158 151 103 279 100 70 76 85 82 73 63 38 44 45 36 28 19 4 328 307 309 297 290 268 224 210 188 186 188 187 182 178 177 272 340 314 221 216 243 248 244 260 259 263
1 158 153 194 124 107 44 88 86 82 78 57 49 29 35 57 346 346 314 299 295 312 294 191 169 158 153 151 148 149 139 120 116 154 292 34 248 232 232 247 249 250 265 271
Height
1469 1478 1487 1481 1481 1478 1485 1490 1494 1487 1488 1499 1503 1510 1509 1514 1519 1522 1521 1524 1528 1531 1535 1538 1541 1544 1547 1550 1552 1555 1557 1558 1560 1561 1561 1561 1562 1562 1562 1564 1563 1563 1564 1565
1475 1481 1468 1468 1473 1478 1484 1491 1490 1483 1482 1491 1504 1508 1505 1509 1509 1512 1516 1521 1524 1529 1533 1536 1538 1541 1545 1547 1549 1552 1554 1555 1557 1558 1559 1559 1559 1559 1560 1561 1561 1561 1562 1562
1476 1466 1462 1467 1470 1479 1481 1487 1487 1484 1481 1490 1504 1520 1513 1508 1510 1513 1515 1514 1518 1521 1528 1533 1537 1539 1542 1545 1547 1549 1551 1553 1555 1556 1557 1557 1557 1557 1557 1558 1558 1559 1559 1559
1468 1459 1462 1467 1471 1474 1493 1472 1466 1476 1484 1516 1494 1538 1517 1504 1507 1507 1509 1512 1514 1515 1520 1528 1532 1536 1539 1541 1545 1546 1549 1551 1552 1553 1553 1554 1554 1554 1553 1555 1556 1556 1556 1556
1465 1459 1462 1469 1463 1464 1472 1461 1467 1467 1478 1494 1500 1522 1500 1508 1513 1504 1501 1500 1504 1507 1512 1518 1524 1530 1535 1537 1539 1542 1545 1548 1549 1551 1551 1551 1551 1551 1551 1552 1554 1554 1553 1554
1455 1450 1452 1456 1451 1455 1451 1457 1466 1476 1494 1520 1498 1507 1514 1506 1489 1489 1493 1497 1501 1504 1506 1513 1519 1523 1529 1535 1537 1540 1541 1544 1546 1548 1548 1549 1549 1549 1549 1550 1551 1551 1551 1551
1456 1451 1446 1446 1456 1449 1453 1476 1509 1510 1523 1525 1495 1504 1488 1477 1473 1475 1481 1487 1492 1497 1502 1507 1514 1518 1523 1529 1533 1536 1538 1540 1542 1544 1545 1547 1548 1547 1547 1548 1549 1550 1549 1549
1473 1475 1444 1440 1448 1457 1459 1470 1508 1519 1518 1505 1487 1499 1473 1456 1455 1466 1472 1477 1485 1490 1495 1499 1506 1511 1516 1521 1526 1529 1531 1535 1538 1540 1542 1545 1545 1545 1545 1546 1547 1548 1548 1548
1472 1467 1436 1433 1435 1443 1454 1469 1457 1487 1490 1505 1491 1470 1450 1446 1454 1462 1468 1477 1479 1483 1489 1494 1501 1505 1509 1513 1516 1520 1523 1527 1532 1535 1538 1540 1541 1542 1542 1543 1544 1545 1546 1545
1446 1467 1435 1428 1430 1430 1434 1438 1473 1487 1508 1510 1498 1484 1483 1462 1458 1458 1464 1468 1471 1478 1484 1489 1495 1498 1501 1504 1507 1512 1516 1519 1524 1529 1532 1535 1537 1538 1540 1540 1541 1541 1542 1542
1431 1448 1438 1431 1435 1440 1439 1446 1455 1467 1483 1506 1513 1497 1452 1446 1447 1453 1455 1458 1468 1473 1477 1480 1486 1492 1494 1498 1502 1505 1510 1514 1519 1523 1526 1530 1533 1534 1535 1537 1539 1538 1539 1539
1420 1440 1448 1436 1419 1416 1418 1435 1447 1477 1481 1485 1492 1487 1438 1437 1440 1444 1450 1455 1460 1467 1471 1476 1480 1484 1487 1491 1494 1498 1503 1508 1513 1518 1523 1526 1529 1531 1531 1533 1535 1535 1536 1536
1409 1436 1450 1446 1430 1415 1418 1423 1432 1447 1462 1480 1492 1482 1437 1439 1440 1441 1447 1452 1457 1461 1467 1470 1475 1478 1480 1483 1487 1492 1496 1502 1509 1514 1518 1522 1524 1526 1527 1528 1531 1531 1532 1533
1394 1421 1429 1442 1439 1420 1424 1421 1425 1438 1469 1474 1470 1455 1444 1443 1445 1444 1446 1448 1452 1456 1459 1463 1468 1471 1472 1475 1479 1484 1490 1496 1503 1508 1510 1514 1517 1521 1524 1525 1527 1527 1529 1529
1389 1418 1418 1416 1406 1411 1407 1411 1422 1431 1436 1451 1448 1451 1442 1437 1436 1436 1439 1444 1449 1452 1454 1457 1461 1464 1467 1472 1475 1480 1486 1489 1496 1500 1504 1508 1512 1517 1520 1520 1523 1523 1524 1525
1385 1408 1406 1411 1404 1403 1406 1404 1408 1416 1426 1428 1434 1440 1424 1424 1429 1434 1435 1438 1440 1447 1451 1455 1457 1458 1460 1463 1467 1470 1476 1481 1488 1494 1498 1505 1510 1514 1515 1516 1517 1518 1519 1521
1388 1399 1414 1426 1407 1408 1421 1404 1404 1408 1414 1420 1442 1424 1418 1426 1428 1428 1433 1438 1440 1444 1449 1453 1455 1457 1458 1459 1460 1463 1469 1475 1481 1486 1492 1499 1505 1508 1509 1511 1512 1514 1514 1517
1384 1395 1407 1421 1411 1440 1410 1392 1399 1416 1418 1419 1413 1409 1408 1413 1419 1426 1429 1432 1437 1442 1447 1450 1452 1455 1455 1455 1457 1461 1464 1468 1476 1484 1491 1495 1498 1500 1503 1506 1508 1509 1511 1512
1378 1386 1419 1425 1430 1414 1401 1410 1411 1416 1427 1416 1411 1407 1407 1411 1421 1428 1430 1433 1435 1440 1444 1449 1451 1452 1451 1450 1450 1453 1456 1463 1471 1478 1486 1489 1492 1494 1498 1501 1502 1503 1504 1507
1378 1387 1397 1422 1424 1434 1418 1409 1403 1401 1447 1420 1413 1413 1414 1413 1435 1432 1430 1431 1436 1441 1443 1447 1449 1449 1447 1447 1448 1448 1451 1457 1463 1471 1476 1482 1488 1491 1493 1494 1495 1496 1499 1499
1405 1406 1422 1430 1436 1428 1410 1404 1398 1439 1449 1420 1417 1420 1422 1425 1430 1435 1434 1434 1437 1441 1444 1445 1445 1443 1443 1445 1444 1446 1449 1453 1460 1470 1477 1483 1486 1487 1487 1487 1489 1491 1493 1495
1420 1426 1438 1433 1430 1440 1415 1408 1422 1429 1424 1424 1426 1426 1431 1433 1436 1434 1436 1439 1442 1442 1439 1440 1441 1440 1439 1440 1442 1444 1448 1455 1464 1473 1478 1482 1484 1485 1481 1481 1481 1486 1487 1487
1423 1427 1437 1444 1451 1436 1428 1425 1425 1424 1427 1429 1432 1433 1438 1437 1444 1441 1437 1440 1442 1443 1438 1438 1437 1434 1436 1437 1440 1446 1453 1460 1463 1467 1472 1470 1476 1484 1473 1456 1481 1478 1481 1483
1411 1415 1429 1437 1442 1439 1433 1426 1429 1429 1430 1432 1441 1444 1439 1439 1438 1437 1439 1442 1444 1437 1433 1431 1429 1429 1431 1434 1439 1446 1452 1455 1461 1464 1465 1464 1464 1477 1485 1478 1475 1478 1482 1481
1411 1419 1421 1441 1431 1434 1436 1433 1432 1434 1432 1438 1443 1446 1444 1440 1439 1436 1440 1442 1437 1435 1432 1426 1425 1425 1429 1435 1438 1443 1450 1455 1461 1464 1465 1464 1468 1467 1471 1473 1472 1475 1476 1475
1414 1420 1429 1437 1429 1435 1441 1438 1436 1431 1436 1443 1447 1447 1447 1436 1442 1436 1433 1438 1442 1434 1431 1429 1427 1429 1431 1439 1443 1446 1449 1451 1454 1459 1459 1464 1472 1471 1469 1472 1474 1473 1472 1471